Date String (YYYY-MM-DD hh:mm:ss) UTC,Instrument flags,Ambient pressure (hPa),Sample flow (lpm),Bypass flow (lpm),Sample temperature (°C),Ambient temperature (°C),ASC tube jacket temperature (°C),LED temperature (°C),Box temperature (°C),Sample RH (%),Span deviation,Mass concentration (μg/m³),Mass concentration (μg/m³),Mass concentration (μg/m³)
DateTimeUTC,F1_M11,P_M11,Q1_M11,Q2_M11,T1_M11,T2_M11,T3_M11,T4_M11,T5_M11,U1_M11,ZSPAN_M11,X0_M11,X2_M11,X1_M11
2022-02-15 16:00:00,,0816.2,5.01,0.00,22.9,22.2,00.0,31.8,24.8,09.7,0000.0,0012.30,0003.25,0001.67
2022-02-15 16:01:00,,0816.1,4.99,0.00,22.9,22.2,00.0,31.9,24.8,10.2,0000.0,0012.93,0003.44,0001.73
2022-02-15 16:02:00,,0816.2,4.99,0.00,23.0,22.2,00.0,31.9,24.8,09.9,0000.0,0013.27,0003.53,0001.78
2022-02-15 16:03:00,,0816.2,5.01,0.00,23.0,22.2,00.0,31.9,24.8,09.5,0000.0,0015.01,0003.66,0001.82
2022-02-15 16:04:00,,0816.3,5.00,0.00,23.0,22.3,00.0,31.9,24.8,09.0,0000.0,0015.55,0003.73,0001.86
2022-02-15 16:05:00,,0816.3,5.00,0.00,23.0,22.3,00.0,31.9,24.8,10.0,0000.0,0015.89,0003.84,0001.89
2022-02-15 16:06:00,,0816.3,5.00,0.00,23.0,22.3,00.0,31.9,24.9,09.9,0000.0,0015.70,0003.96,0001.95
2022-02-15 16:07:00,,0816.3,5.01,0.00,23.0,22.3,00.0,31.9,24.9,09.6,0000.0,0014.79,0003.98,0002.00
2022-02-15 16:08:00,,0816.3,4.99,0.00,23.0,22.3,00.0,31.9,24.9,09.2,0000.0,0014.51,0004.02,0002.04
2022-02-15 16:09:00,,0816.3,5.02,0.00,23.0,22.3,00.0,31.9,24.9,10.2,0000.0,0015.32,0004.13,0002.09
2022-02-15 16:10:00,,0816.4,4.99,0.00,23.0,22.3,00.0,31.9,24.9,11.5,0000.0,0016.63,0004.30,0002.21
2022-02-15 16:11:00,,0816.3,4.99,0.00,23.1,22.3,00.0,32.0,24.9,11.2,0000.0,0018.82,0004.42,0002.34
2022-02-15 16:12:00,,0816.3,5.01,0.00,23.1,22.3,00.0,32.0,24.9,10.2,0000.0,0019.53,0004.41,0002.40
2022-02-15 16:13:00,,0816.3,4.99,0.00,23.1,22.4,00.0,32.0,24.9,10.0,0000.0,0020.04,0004.46,0002.44
2022-02-15 16:14:00,,0816.3,5.01,0.00,23.1,22.4,00.0,32.0,24.9,10.7,0000.0,0019.56,0004.57,0002.52
2022-02-15 16:15:00,,0816.3,4.99,0.00,23.1,22.4,00.0,32.0,24.9,10.7,0000.0,0018.37,0004.72,0002.62
2022-02-15 16:16:00,,0816.2,4.99,0.00,23.1,22.4,00.0,32.0,25.0,10.9,0000.0,0018.93,0004.83,0002.69
2022-02-15 16:17:00,,0816.3,5.01,0.00,23.1,22.4,00.0,32.0,25.0,10.4,0000.0,0019.21,0004.84,0002.74
2022-02-15 16:18:00,,0816.2,4.99,0.00,23.1,22.4,00.0,32.0,25.0,10.1,0000.0,0019.50,0004.93,0002.81
2022-02-15 16:19:00,,0816.3,5.02,0.00,23.2,22.4,00.0,32.0,25.0,09.7,0000.0,0020.19,0005.04,0002.87
2022-02-15 16:20:00,,0816.3,4.99,0.00,23.2,22.5,00.0,32.1,25.0,09.6,0000.0,0020.20,0005.08,0002.89
2022-02-15 16:21:00,,0816.3,5.00,0.00,23.2,22.5,00.0,32.1,25.0,09.7,0000.0,0020.85,0005.03,0002.86
2022-02-15 16:22:00,,0816.2,5.01,0.00,23.2,22.5,00.0,32.1,25.0,09.6,0000.0,0019.61,0004.98,0002.82
2022-02-15 16:23:00,,0816.2,4.99,0.00,23.2,22.5,00.0,32.1,25.1,09.4,0000.0,0020.02,0004.95,0002.80
2022-02-15 16:24:00,,0816.2,5.02,0.00,23.2,22.5,00.0,32.1,25.0,09.6,0000.0,0021.77,0004.95,0002.82
2022-02-15 16:25:00,,0816.2,4.99,0.00,23.2,22.5,00.0,32.1,25.1,09.7,0000.0,0023.23,0004.88,0002.81
2022-02-15 16:26:00,,0816.1,5.00,0.00,23.2,22.6,00.0,32.1,25.1,09.3,0000.0,0024.77,0004.79,0002.79
2022-02-15 16:27:00,,0816.1,5.01,0.00,23.3,22.6,00.0,32.1,25.1,09.2,0000.0,0025.15,0004.73,0002.76
2022-02-15 16:28:00,,0816.2,5.00,0.00,23.3,22.6,00.0,32.1,25.1,09.5,0000.0,0025.77,0004.81,0002.75
2022-02-15 16:29:00,,0816.2,4.99,0.00,23.3,22.6,00.0,32.2,25.1,08.9,0000.0,0025.79,0004.70,0002.72
2022-02-15 16:30:00,,0816.2,5.02,0.00,23.3,22.6,00.0,32.2,25.1,08.1,0000.0,0025.28,0004.57,0002.70
2022-02-15 16:31:00,,0816.1,4.99,0.00,23.3,22.6,00.0,32.2,25.2,08.0,0000.0,0025.03,0004.44,0002.69
2022-02-15 16:32:00,,0816.1,5.01,0.00,23.3,22.6,00.0,32.2,25.2,07.1,0000.0,0023.42,0004.37,0002.65
2022-02-15 16:33:00,,0816.2,5.00,0.00,23.3,22.7,00.0,32.2,25.2,06.8,0000.0,0022.03,0004.26,0002.58
2022-02-15 16:34:00,,0816.2,4.99,0.00,23.4,22.7,00.0,32.2,25.2,07.0,0000.0,0020.96,0004.18,0002.52
2022-02-15 16:35:00,,0816.2,5.00,0.00,23.4,22.7,00.0,32.2,25.2,06.8,0000.0,0018.71,0004.06,0002.45
2022-02-15 16:36:00,,0816.2,5.00,0.00,23.4,22.7,00.0,32.2,25.2,06.6,0000.0,0016.49,0003.91,0002.36
2022-02-15 16:37:00,,0816.2,5.01,0.00,23.4,22.7,00.0,32.3,25.2,06.9,0000.0,0014.21,0003.77,0002.29
2022-02-15 16:38:00,,0816.3,4.98,0.00,23.4,22.7,00.0,32.3,25.2,06.5,0000.0,0012.84,0003.65,0002.23
2022-02-15 16:39:00,,0816.3,5.01,0.00,23.4,22.7,00.0,32.3,25.3,06.9,0000.0,0011.64,0003.43,0002.17
2022-02-15 16:40:00,,0816.3,5.01,0.00,23.5,22.8,00.0,32.3,25.3,06.9,0000.0,0011.67,0003.36,0002.11
2022-02-15 16:41:00,,0816.2,4.99,0.00,23.5,22.8,00.0,32.3,25.3,06.7,0000.0,0011.76,0003.34,0002.04
2022-02-15 16:42:00,,0816.2,5.00,0.00,23.5,22.8,00.0,32.3,25.3,06.4,0000.0,0011.63,0003.33,0001.99
2022-02-15 16:43:00,,0816.2,5.00,0.00,23.5,22.8,00.0,32.3,25.3,06.6,0000.0,0011.84,0003.29,0001.96
2022-02-15 16:44:00,,0816.1,5.01,0.00,23.5,22.8,00.0,32.4,25.3,06.5,0000.0,0012.03,0003.28,0001.95
2022-02-15 16:45:00,,0816.1,4.99,0.00,23.5,22.8,00.0,32.4,25.3,06.6,0000.0,0011.25,0003.24,0001.93
2022-02-15 16:46:00,,0816.1,4.98,0.00,23.5,22.8,00.0,32.4,25.4,06.3,0000.0,0010.65,0003.22,0001.92
2022-02-15 16:47:00,,0816.1,5.02,0.00,23.6,22.9,00.0,32.4,25.4,06.4,0000.0,0010.58,0003.20,0001.90
2022-02-15 16:48:00,,0816.1,4.99,0.00,23.6,22.9,00.0,32.4,25.5,06.7,0000.0,0010.56,0003.24,0001.90
2022-02-15 16:49:00,,0816.2,5.00,0.00,23.6,22.9,00.0,32.4,25.5,07.4,0000.0,0010.80,0003.25,0001.91
2022-02-15 16:50:00,,0816.1,5.00,0.00,23.6,22.9,00.0,32.5,25.5,07.4,0000.0,0011.19,0003.33,0001.93
2022-02-15 16:51:00,,0816.2,5.00,0.00,23.6,23.0,00.0,32.5,25.5,06.5,0000.0,0010.49,0003.37,0001.95
2022-02-15 16:52:00,,0816.2,4.99,0.00,23.7,23.0,00.0,32.5,25.5,06.8,0000.0,0010.21,0003.38,0001.96
2022-02-15 16:53:00,,0816.2,5.02,0.00,23.7,23.0,00.0,32.5,25.5,07.2,0000.0,0009.77,0003.39,0001.97
2022-02-15 16:54:00,,0816.1,4.99,0.00,23.7,23.0,00.0,32.5,25.6,06.8,0000.0,0009.15,0003.38,0001.98
2022-02-15 16:55:00,,0816.1,5.01,0.00,23.7,23.0,00.0,32.5,25.5,07.5,0000.0,0009.08,0003.37,0002.00
2022-02-15 16:56:00,,0816.1,4.99,0.00,23.7,23.1,00.0,32.5,25.6,07.2,0000.0,0010.76,0003.47,0002.03
2022-02-15 16:57:00,,0816.1,5.01,0.00,23.7,23.1,00.0,32.6,25.6,06.8,0000.0,0011.45,0003.49,0002.06
2022-02-15 16:58:00,,0816.2,5.00,0.00,23.8,23.1,00.0,32.6,25.6,06.5,0000.0,0012.27,0003.54,0002.08
2022-02-15 16:59:00,,0816.5,4.99,0.00,23.8,23.1,00.0,32.6,25.6,06.6,0000.0,0012.07,0003.54,0002.10
